EZY27KE LGKL-EGKK

Flight info

Callsign EZY27KE
Flight time N/A
Altitude 34000
Route BERAP DCT KRK UL53 OLGAT DCT AIOSA DCT UMSON/N0444F360 DCT PEVAL DCT SOTOV P66 KPT L608 TEDGO DCT ADENU L608 DENUT L610 TEBRA
Aircraft A320/M-SDE2E3FGHIJ1RWXYZ/LB1

Departure

Time 2026-05-05 13:42
Airport Kalamata Airport (LGKL)

Arrival

Time N/A
Airport London Gatwick Airport (EGKK)
Time Latitude Longitude Altitude Speed Heading
2026-05-05 13:14 37.05538 22.03247 35 ft 0 kts 283°
2026-05-05 13:36 37.05535 22.03238 35 ft 3 kts 244°
2026-05-05 13:36 37.05514 22.03180 35 ft 12 kts 264°
2026-05-05 13:36 37.05536 22.03058 34 ft 15 kts 285°
2026-05-05 13:37 37.05589 22.02959 34 ft 14 kts 338°
2026-05-05 13:37 37.05705 22.02931 31 ft 20 kts 349°
2026-05-05 13:37 37.05840 22.02901 33 ft 19 kts 348°
2026-05-05 13:37 37.05970 22.02869 34 ft 18 kts 349°
2026-05-05 13:38 37.06094 22.02840 32 ft 18 kts 349°
2026-05-05 13:38 37.06216 22.02812 33 ft 18 kts 349°
2026-05-05 13:38 37.06333 22.02784 34 ft 17 kts 348°
2026-05-05 13:38 37.06455 22.02756 34 ft 19 kts 349°
2026-05-05 13:39 37.06589 22.02725 33 ft 20 kts 349°
2026-05-05 13:39 37.06730 22.02692 33 ft 21 kts 350°
2026-05-05 13:39 37.06902 22.02652 34 ft 30 kts 349°
2026-05-05 13:39 37.07108 22.02604 34 ft 30 kts 350°
2026-05-05 13:40 37.07312 22.02556 34 ft 30 kts 349°
2026-05-05 13:40 37.07513 22.02510 33 ft 29 kts 349°
2026-05-05 13:40 37.07711 22.02462 32 ft 29 kts 349°
2026-05-05 13:40 37.07906 22.02416 34 ft 28 kts 349°
2026-05-05 13:41 37.08099 22.02368 35 ft 28 kts 347°
2026-05-05 13:41 37.08173 22.02275 34 ft 15 kts 246°
2026-05-05 13:41 37.08082 22.02252 35 ft 14 kts 169°
2026-05-05 13:41 37.08002 22.02270 34 ft 11 kts 170°
2026-05-05 13:42 37.07805 22.02315 33 ft 63 kts 169°
2026-05-05 13:42 37.07150 22.02468 32 ft 126 kts 169°
2026-05-05 13:42 37.06117 22.02708 59 ft 172 kts 171°
2026-05-05 13:42 37.04939 22.02983 674 ft 172 kts 171°
2026-05-05 13:43 37.03762 22.03260 1381 ft 175 kts 170°
2026-05-05 13:43 37.02494 22.03560 1901 ft 198 kts 172°
2026-05-05 13:43 37.01075 22.03892 2254 ft 218 kts 171°
2026-05-05 13:43 36.99542 22.04249 2531 ft 238 kts 171°
2026-05-05 13:44 36.97884 22.04637 3152 ft 246 kts 171°
2026-05-05 13:44 36.96187 22.05034 3849 ft 250 kts 171°
2026-05-05 13:44 36.94468 22.05436 4581 ft 253 kts 170°
2026-05-05 13:44 36.92730 22.05841 5313 ft 255 kts 170°
2026-05-05 13:45 36.90976 22.06251 6054 ft 258 kts 169°
2026-05-05 13:45 36.89203 22.06665 6770 ft 261 kts 169°
2026-05-05 13:45 36.87410 22.07080 7457 ft 264 kts 169°
2026-05-05 13:45 36.85592 22.07501 8140 ft 267 kts 169°
2026-05-05 13:46 36.83750 22.07930 8801 ft 272 kts 169°
2026-05-05 13:46 36.81873 22.08360 9015 ft 275 kts 173°
2026-05-05 13:46 36.79987 22.08202 9063 ft 273 kts 199°
2026-05-05 13:46 36.78355 22.07063 9056 ft 270 kts 225°
2026-05-05 13:47 36.77271 22.05197 9065 ft 266 kts 250°
2026-05-05 13:47 36.76902 22.02972 9083 ft 263 kts 275°
2026-05-05 13:47 36.77305 22.00766 9708 ft 262 kts 297°
2026-05-05 13:47 36.78355 21.98933 10385 ft 261 kts 320°
2026-05-05 13:48 36.79901 21.97793 11041 ft 260 kts 343°
2026-05-05 13:48 36.81691 21.97547 11678 ft 262 kts
2026-05-05 13:48 36.83503 21.97897 12333 ft 264 kts
2026-05-05 13:48 36.85321 21.98255 13007 ft 265 kts
2026-05-05 13:49 36.87142 21.98608 13677 ft 266 kts
2026-05-05 13:49 36.88972 21.98964 14284 ft 267 kts
2026-05-05 13:49 36.90817 21.99323 14840 ft 269 kts
2026-05-05 13:49 36.92673 21.99681 15395 ft 271 kts
2026-05-05 13:50 36.94546 22.00042 15942 ft 273 kts
2026-05-05 13:50 36.96435 22.00408 16481 ft 276 kts
2026-05-05 13:50 36.98339 22.00777 17018 ft 278 kts
2026-05-05 13:50 37.00263 22.01151 17557 ft 281 kts
2026-05-05 13:51 37.02204 22.01527 18106 ft 283 kts
2026-05-05 13:51 37.04159 22.01907 18613 ft 286 kts
2026-05-05 13:51 37.06129 22.02292 19099 ft 287 kts
2026-05-05 13:51 37.08100 22.02338 19572 ft 282 kts 343°
2026-05-05 13:52 37.09845 22.01296 20020 ft 280 kts 319°
2026-05-05 13:52 37.11007 21.99345 20488 ft 285 kts 296°
2026-05-05 13:52 37.11834 21.97083 20935 ft 285 kts 304°
2026-05-05 13:52 37.13096 21.95187 21396 ft 284 kts 315°
2026-05-05 13:53 37.14512 21.93451 21861 ft 285 kts 317°
2026-05-05 13:53 37.15970 21.91753 22332 ft 287 kts 318°
2026-05-05 13:53 37.17451 21.90071 22795 ft 288 kts 319°
2026-05-05 13:53 37.18946 21.88387 23271 ft 289 kts 319°
2026-05-05 13:54 37.20444 21.86696 23734 ft 291 kts 319°
2026-05-05 13:54 37.21440 21.85568 23991 ft 292 kts 319°
2026-05-05 13:54 37.22949 21.83855 24382 ft 293 kts 319°
2026-05-05 13:54 37.24462 21.82133 24766 ft 294 kts 319°
2026-05-05 13:55 37.25978 21.80400 25141 ft 295 kts 318°
2026-05-05 13:55 37.27499 21.78661 25525 ft 296 kts 319°
2026-05-05 13:55 37.29027 21.76915 25885 ft 297 kts 319°
2026-05-05 13:55 37.31059 21.74592 26361 ft 299 kts 318°
2026-05-05 13:56 37.32099 21.73401 26604 ft 300 kts 318°
2026-05-05 13:56 37.34147 21.71055 27061 ft 302 kts 318°
2026-05-05 13:56 37.35198 21.69848 27293 ft 303 kts 318°
2026-05-05 13:56 37.36760 21.68052 27622 ft 305 kts 318°
2026-05-05 13:57 37.38333 21.66245 27941 ft 307 kts 318°
2026-05-05 13:57 37.39915 21.64429 28261 ft 309 kts 318°
2026-05-05 13:57 37.41581 21.62711 28556 ft 311 kts 327°
2026-05-05 13:57 37.43460 21.61294 28681 ft 318 kts 329°
2026-05-05 13:58 37.45364 21.59888 28831 ft 325 kts 329°
2026-05-05 13:58 37.47359 21.58416 28971 ft 332 kts 329°
2026-05-05 13:58 37.49369 21.56932 29109 ft 338 kts 329°
2026-05-05 13:58 37.51415 21.55416 29249 ft 344 kts 328°
2026-05-05 13:59 37.55576 21.52315 29528 ft 356 kts 328°
2026-05-05 13:59 37.57749 21.50690 29668 ft 361 kts 328°
2026-05-05 14:00 37.62129 21.47419 29953 ft 371 kts 328°
2026-05-05 14:00 37.64338 21.45771 30095 ft 376 kts 328°
2026-05-05 14:00 37.66601 21.44082 30229 ft 380 kts 328°
2026-05-05 14:00 37.68892 21.42371 30352 ft 385 kts 328°
2026-05-05 14:01 37.71207 21.40640 30471 ft 389 kts 328°
2026-05-05 14:01 37.73545 21.38891 30599 ft 392 kts 329°
2026-05-05 14:01 37.75897 21.37130 30756 ft 394 kts 328°
2026-05-05 14:01 37.78259 21.35360 30998 ft 394 kts 328°
2026-05-05 14:02 37.80616 21.33591 31289 ft 394 kts 328°
2026-05-05 14:02 37.82968 21.31822 31567 ft 393 kts 328°
2026-05-05 14:02 37.85317 21.30057 31841 ft 393 kts 328°
2026-05-05 14:02 37.87668 21.28292 32094 ft 393 kts 328°
2026-05-05 14:03 37.90020 21.26525 32358 ft 393 kts 328°
2026-05-05 14:03 37.92365 21.24758 32624 ft 392 kts 328°
2026-05-05 14:03 37.94711 21.22988 32887 ft 392 kts 328°
2026-05-05 14:03 37.97052 21.21219 33146 ft 392 kts 328°
2026-05-05 14:04 37.99390 21.19448 33402 ft 392 kts 328°
2026-05-05 14:04 38.01727 21.17676 33658 ft 391 kts 328°
2026-05-05 14:04 38.04066 21.15904 33893 ft 391 kts 328°
2026-05-05 14:04 38.06403 21.14137 34093 ft 391 kts 328°
2026-05-05 14:05 38.11042 21.10628 34132 ft 386 kts 328°
2026-05-05 14:05 38.15636 21.07143 34139 ft 384 kts 328°
2026-05-05 14:06 38.20191 21.03688 34130 ft 384 kts 328°
2026-05-05 14:06 38.24767 21.00203 34127 ft 383 kts 328°
2026-05-05 14:07 38.29331 20.96722 34128 ft 382 kts 328°
2026-05-05 14:07 38.33889 20.93242 34133 ft 382 kts 328°
2026-05-05 14:08 38.38442 20.89761 34140 ft 381 kts 328°
2026-05-05 14:08 38.42980 20.86285 34146 ft 380 kts 328°
2026-05-05 14:09 38.47509 20.82808 34148 ft 379 kts 328°
2026-05-05 14:09 38.52028 20.79340 34149 ft 379 kts 328°
2026-05-05 14:10 38.56543 20.75884 34147 ft 378 kts 328°
2026-05-05 14:10 38.61041 20.72420 34149 ft 377 kts 328°
2026-05-05 14:11 38.65525 20.68952 34152 ft 376 kts 328°
2026-05-05 14:11 38.70001 20.65495 34153 ft 375 kts 328°
2026-05-05 14:12 38.74468 20.62042 34155 ft 375 kts 328°
2026-05-05 14:12 38.78926 20.58587 34149 ft 374 kts 328°
2026-05-05 14:13 38.83382 20.55137 34152 ft 374 kts 328°
2026-05-05 14:13 38.87826 20.51686 34150 ft 373 kts 328°
2026-05-05 14:14 38.92267 20.48232 34147 ft 373 kts 328°
2026-05-05 14:14 38.96704 20.44770 34149 ft 373 kts 328°
2026-05-05 14:15 39.01138 20.41313 34140 ft 373 kts 328°
2026-05-05 14:15 39.05570 20.37855 34145 ft 373 kts 327°
2026-05-05 14:16 39.09998 20.34384 34140 ft 373 kts 327°
2026-05-05 14:16 39.14423 20.30905 34140 ft 372 kts 327°
2026-05-05 14:17 39.18846 20.27428 34140 ft 372 kts 327°
2026-05-05 14:17 39.23243 20.23979 34141 ft 372 kts 327°
2026-05-05 14:18 39.27698 20.20485 34146 ft 372 kts 327°
2026-05-05 14:18 39.32083 20.17022 34134 ft 372 kts 327°
2026-05-05 14:19 39.36492 20.13531 34135 ft 372 kts 327°
2026-05-05 14:19 39.40903 20.10041 34134 ft 372 kts 327°
2026-05-05 14:20 39.45152 20.06269 34130 ft 370 kts 316°
2026-05-05 14:20 39.48766 20.01511 34130 ft 371 kts 314°
2026-05-05 14:21 39.52379 19.96745 34130 ft 371 kts 314°
2026-05-05 14:21 39.55997 19.91972 34128 ft 371 kts 314°
2026-05-05 14:22 39.59612 19.87184 34127 ft 372 kts 314°
2026-05-05 14:22 39.63232 19.82388 34132 ft 372 kts 314°
2026-05-05 14:23 39.66847 19.77583 34128 ft 372 kts 314°
2026-05-05 14:23 39.70469 19.72773 34129 ft 373 kts 314°
2026-05-05 14:24 39.74092 19.67952 34121 ft 373 kts 314°
2026-05-05 14:24 39.77708 19.63119 34123 ft 373 kts 314°
2026-05-05 14:25 39.81325 19.58285 34123 ft 373 kts 314°
2026-05-05 14:25 39.84942 19.53442 34121 ft 373 kts 313°
2026-05-05 14:26 39.88555 19.48589 34121 ft 373 kts 313°
2026-05-05 14:26 39.92174 19.43731 34116 ft 374 kts 313°
2026-05-05 14:27 39.95797 19.38868 34114 ft 374 kts 313°
2026-05-05 14:27 39.99417 19.33994 34108 ft 374 kts 313°
2026-05-05 14:28 40.03036 19.29105 34109 ft 375 kts 313°
2026-05-05 14:28 40.06657 19.24208 34107 ft 375 kts 313°
2026-05-05 14:29 40.10280 19.19301 34108 ft 375 kts 313°
2026-05-05 14:29 40.13908 19.14393 34105 ft 375 kts 313°
2026-05-05 14:30 40.17509 19.09508 34106 ft 376 kts 312°
2026-05-05 14:30 40.21127 19.04575 34106 ft 376 kts 312°
2026-05-05 14:31 40.24794 18.99698 34101 ft 377 kts 317°
2026-05-05 14:31 40.28953 18.95478 34094 ft 378 kts 320°
2026-05-05 14:32 40.33124 18.91268 34099 ft 379 kts 319°
2026-05-05 14:32 40.37277 18.87018 34096 ft 379 kts 319°
2026-05-05 14:33 40.41424 18.82756 34097 ft 379 kts 319°
2026-05-05 14:33 40.45544 18.78520 34099 ft 379 kts 319°
2026-05-05 14:34 40.49694 18.74259 34100 ft 379 kts 319°
2026-05-05 14:34 40.53842 18.69991 34099 ft 378 kts 318°
2026-05-05 14:35 40.57979 18.65715 34096 ft 378 kts 318°
2026-05-05 14:35 40.62118 18.61437 34093 ft 378 kts 318°
2026-05-05 14:36 40.66258 18.57154 34089 ft 378 kts 318°
2026-05-05 14:36 40.70395 18.52868 34088 ft 378 kts 317°
2026-05-05 14:37 40.74531 18.48574 34086 ft 379 kts 317°
2026-05-05 14:37 40.78667 18.44268 34079 ft 379 kts 317°
2026-05-05 14:38 40.82799 18.39956 34081 ft 379 kts 317°
2026-05-05 14:38 40.86935 18.35643 34075 ft 379 kts 317°
2026-05-05 14:39 40.91072 18.31321 34075 ft 379 kts 317°
2026-05-05 14:39 40.95208 18.26991 34075 ft 379 kts 316°
2026-05-05 14:40 40.99343 18.22650 34071 ft 380 kts 316°
2026-05-05 14:40 41.03484 18.18301 34069 ft 380 kts 316°
2026-05-05 14:41 41.07626 18.13953 34071 ft 380 kts 316°
2026-05-05 14:41 41.11766 18.09586 34068 ft 380 kts 316°
2026-05-05 14:42 41.15904 18.05208 34064 ft 381 kts 316°
2026-05-05 14:42 41.20049 18.00829 34064 ft 381 kts 316°
2026-05-05 14:43 41.23494 17.97184 34060 ft 381 kts 316°
2026-05-05 14:43 41.27640 17.92780 34061 ft 382 kts 316°
2026-05-05 14:44 41.31789 17.88369 34056 ft 382 kts 316°
2026-05-05 14:44 41.35942 17.83945 34053 ft 383 kts 315°
2026-05-05 14:45 41.40096 17.79507 34054 ft 383 kts 315°
2026-05-05 14:45 41.44258 17.75072 34050 ft 383 kts 315°
2026-05-05 14:46 41.48424 17.70626 34053 ft 384 kts 315°
2026-05-05 14:46 41.52587 17.66158 34050 ft 384 kts 315°
2026-05-05 14:47 41.56725 17.61714 34047 ft 384 kts 315°
2026-05-05 14:47 41.60889 17.57231 34052 ft 385 kts 315°
2026-05-05 14:48 41.65064 17.52741 34051 ft 385 kts 315°
2026-05-05 14:48 41.69237 17.48246 34052 ft 385 kts 315°
2026-05-05 14:49 41.73410 17.43732 34052 ft 386 kts 315°
2026-05-05 14:49 41.77584 17.39204 34046 ft 386 kts 315°
2026-05-05 14:50 41.81766 17.34673 34042 ft 387 kts 315°
2026-05-05 14:50 41.85955 17.30129 34043 ft 388 kts 315°
2026-05-05 14:51 41.90143 17.25564 34039 ft 388 kts 315°
2026-05-05 14:51 41.94338 17.20985 34040 ft 389 kts 315°
2026-05-05 14:52 41.98514 17.16425 34040 ft 390 kts 315°
2026-05-05 14:52 42.02757 17.11791 34039 ft 391 kts 315°
2026-05-05 14:53 42.06961 17.07178 34168 ft 395 kts 315°
2026-05-05 14:53 42.09097 17.04828 34297 ft 398 kts 315°
2026-05-05 14:53 42.11245 17.02465 34481 ft 399 kts 315°
2026-05-05 14:54 42.13394 17.00105 34670 ft 399 kts 315°
2026-05-05 14:54 42.15550 16.97740 34872 ft 400 kts 316°
2026-05-05 14:54 42.17703 16.95371 35062 ft 400 kts 316°
2026-05-05 14:54 42.19858 16.92997 35248 ft 400 kts 316°
2026-05-05 14:55 42.22010 16.90622 35438 ft 400 kts 316°
2026-05-05 14:55 42.24162 16.88242 35621 ft 400 kts 316°
2026-05-05 14:55 42.26312 16.85861 35810 ft 400 kts 316°
2026-05-05 14:55 42.28461 16.83481 35985 ft 400 kts 316°
2026-05-05 14:56 42.32770 16.78718 36040 ft 400 kts 316°
2026-05-05 14:56 42.37080 16.73939 36040 ft 401 kts 316°
2026-05-05 14:57 42.41388 16.69145 36039 ft 401 kts 316°
2026-05-05 14:57 42.45699 16.64343 36044 ft 401 kts 316°
2026-05-05 14:58 42.50011 16.59530 36040 ft 402 kts 316°
2026-05-05 14:58 42.54328 16.54713 36044 ft 402 kts 316°
2026-05-05 14:59 42.58641 16.49876 36042 ft 402 kts 316°
2026-05-05 14:59 42.62956 16.45027 36042 ft 403 kts 316°
2026-05-05 15:00 42.66545 16.40986 36041 ft 403 kts 316°
2026-05-05 15:00 42.71599 16.35292 36042 ft 404 kts 316°
2026-05-05 15:01 42.75928 16.30409 36040 ft 405 kts 316°
2026-05-05 15:01 42.80234 16.25546 36034 ft 405 kts 316°
2026-05-05 15:02 42.84568 16.20642 36035 ft 405 kts 316°
2026-05-05 15:02 42.88904 16.15723 36033 ft 406 kts 316°
2026-05-05 15:03 42.93240 16.10782 36038 ft 406 kts 316°
2026-05-05 15:03 42.97575 16.05835 36046 ft 407 kts 316°
2026-05-05 15:04 43.01916 16.00878 36042 ft 407 kts 316°
2026-05-05 15:04 43.06258 15.95908 36047 ft 407 kts 316°
2026-05-05 15:05 43.12778 15.88445 36044 ft 408 kts 316°
2026-05-05 15:06 43.17126 15.83450 36042 ft 408 kts 316°
2026-05-05 15:06 43.21468 15.78446 36052 ft 408 kts 316°
2026-05-05 15:07 43.25813 15.73435 36052 ft 408 kts 316°
2026-05-05 15:07 43.30157 15.68413 36052 ft 408 kts 316°
2026-05-05 15:08 43.34499 15.63381 36057 ft 409 kts 316°
2026-05-05 15:08 43.38844 15.58338 36056 ft 409 kts 316°
2026-05-05 15:09 43.43164 15.53326 36053 ft 409 kts 316°
2026-05-05 15:09 43.47511 15.48269 36057 ft 409 kts 316°
2026-05-05 15:10 43.51856 15.43191 36058 ft 410 kts 316°
2026-05-05 15:10 43.56200 15.38104 36060 ft 410 kts 316°
2026-05-05 15:11 43.60550 15.33011 36063 ft 410 kts 316°
2026-05-05 15:11 43.64896 15.27905 36070 ft 411 kts 316°
2026-05-05 15:12 43.69246 15.22787 36069 ft 411 kts 316°
2026-05-05 15:12 43.73594 15.17661 36067 ft 411 kts 316°
2026-05-05 15:13 43.77947 15.12525 36058 ft 411 kts 316°
2026-05-05 15:13 43.82297 15.07377 36051 ft 412 kts 315°
2026-05-05 15:14 43.86643 15.02210 36050 ft 412 kts 315°
2026-05-05 15:14 43.90990 14.97038 36045 ft 412 kts 315°
2026-05-05 15:15 43.95350 14.91864 36040 ft 412 kts 316°
2026-05-05 15:15 43.99708 14.86681 36038 ft 413 kts 315°
2026-05-05 15:16 44.04060 14.81479 36039 ft 413 kts 315°
2026-05-05 15:16 44.08411 14.76259 36035 ft 413 kts 315°
2026-05-05 15:17 44.12734 14.71075 36040 ft 413 kts 315°
2026-05-05 15:17 44.17091 14.65841 36036 ft 414 kts 315°
2026-05-05 15:18 44.21443 14.60594 36033 ft 414 kts 315°
2026-05-05 15:18 44.25793 14.55324 36035 ft 414 kts 315°
2026-05-05 15:19 44.30147 14.50048 36031 ft 415 kts 315°